FENGYUN 1C DEB, 30012

Orbit data source: Space-Track

FENGYUN 1C DEB, 30012 is space debris in SSO originally from a launch on Mon, 10 May 1999 UTC launched from the Taiyaun Space Center, China (TSC). Fengyun 1C debris stems from the Chinese weather satellite Fengyun-1C, which was intentionally destroyed by a Chinese anti-satellite missile in 2007. This event dramatically increased the amount of space debris, with thousands of trackable fragments posing hazards to satellites and human spaceflight. The Fengyun 1C debris cloud has become a focal point in discussions about space sustainability and the need for international regulations to prevent the creation of new debris.

Loading next visibility...
Identifier
30012, 1999-025MM
Orbit
SSO
Country
Flag of CNCN / PRC
Related business
Manufacturer
Unknown
Mission
Spacecraft
Bus & Motor
Unknown
Mass
Unknown
Launch date (UTC)
1999-05-10 (26 years ago)
Launch vehicle
Unknown
Launch site
Taiyaun Space Center, China (TSC)
Object type
Payload
Rocket body
Debris
Shape & HBR
Unknown shape, 0.1 m
Radar Cross Section
Small (<0.1 m²)

Expand to show TLE details & history
Last TLE update: 13 hours ago

TLE from 13 hours ago
0 FENGYUN 1C DEB
1 30012U 99025MM  25309.11870170  .00000342  00000-0  31578-3 0  9991
2 30012  99.4701   1.9651 0135859 245.6931 168.3019 13.85723587950271
Epoch: 2025-11-05T02:50Z
TLE epoch observation values (Epoch: 2025-11-05T02:50:55.826Z)
Latitude
53.33043°
Longitude
-98.24201°
Altitude
1,049.787 km
Speed
7.283 km/s
True Right ascension
23h 16m 20s
True Declination
53° 10' 19"
Sunlit
Object was in full shadow at epoch
Visualization orbit readout
Latitude
Unknown
Longitude
Unknown
Altitude
Unknown
Speed
Unknown
Apparent Right ascension
Unknown
Apparent Declination
Unknown
Sunlit
N/A
Visualization observer readout
Local Sidereal Time
11:59:32
Azimuth
Unknown
Elevation
Unknown
Doppler factor
Unknown
Orbital elements
Apogee altitude
1,040.333 km
Perigee altitude
841.461 km
Semi-major axis
7,319.034 km
Eccentricity
0.01359
Inclination
99.4701°
RAAN
1.9651°
Arg. of periapsis
245.6931°
True anomaly
168.61239°
Mean anomaly
168.3019°
Eccentric anomaly
168.45765°
Mean motion
3.46627 °/min
Orbital period
103.86 mins
BSTAR
0.00031578
Loading maneuver chart data...
Computing Atmospheric mass density...

Documentation

Showing up to 5 results
|